Time,TemperatureF,DewpointF,PressureIn,WindDirection,WindDirectionDegrees,WindSpeedMPH,WindSpeedGustMPH,Humidity,HourlyPrecipIn,Conditions,Clouds,dailyrainin,SoftwareType,DateUTC
2013-08-08 00:00:00,68.6,64.9,29.66,SW,221,9.0,-999.0,88,0.00,,,0.00,Wunderground v.1.15,2013-08-08 04:00:00,
2013-08-08 00:05:00,68.7,64.7,29.66,SSW,210,10.0,-999.0,87,0.00,,,0.00,Wunderground v.1.15,2013-08-08 04:05:00,
2013-08-08 00:10:00,68.6,64.6,29.66,SW,220,10.0,-999.0,87,0.00,,,0.00,Wunderground v.1.15,2013-08-08 04:10:00,
2013-08-08 00:15:00,68.3,64.3,29.66,SSW,213,10.0,-999.0,87,0.00,,,0.00,Wunderground v.1.15,2013-08-08 04:15:00,
2013-08-08 00:20:00,68.1,64.4,29.66,SW,225,10.0,-999.0,88,0.00,,,0.00,Wunderground v.1.15,2013-08-08 04:20:00,
2013-08-08 00:25:00,68.3,64.3,29.66,SW,229,11.0,-999.0,87,0.00,,,0.00,Wunderground v.1.15,2013-08-08 04:25:00,
2013-08-08 00:30:00,68.2,64.2,29.65,SW,223,11.0,-999.0,87,0.00,,,0.00,Wunderground v.1.15,2013-08-08 04:30:00,
2013-08-08 00:40:00,68.2,64.2,29.66,SW,221,10.0,-999.0,87,0.00,,,0.00,Wunderground v.1.15,2013-08-08 04:40:00,
2013-08-08 00:45:00,68.1,64.1,29.66,SW,219,10.0,-999.0,87,0.00,,,0.00,Wunderground v.1.15,2013-08-08 04:45:00,
2013-08-08 00:50:00,68.0,64.0,29.66,SW,235,11.0,-999.0,87,0.00,,,0.00,Wunderground v.1.15,2013-08-08 04:50:00,
2013-08-08 00:55:00,67.9,63.9,29.66,SSW,208,10.0,-999.0,87,0.00,,,0.00,Wunderground v.1.15,2013-08-08 04:55:00,
2013-08-08 01:00:00,67.6,63.6,29.66,SW,217,9.0,-999.0,87,0.00,,,0.00,Wunderground v.1.15,2013-08-08 05:00:00,
2013-08-08 01:10:00,67.2,63.5,29.66,SW,216,9.0,-999.0,88,0.00,,,0.00,Wunderground v.1.15,2013-08-08 05:10:00,
2013-08-08 01:15:00,67.1,63.4,29.66,SW,215,9.0,-999.0,88,0.00,,,0.00,Wunderground v.1.15,2013-08-08 05:15:00,
2013-08-08 01:20:00,67.0,63.3,29.66,SW,217,9.0,-999.0,88,0.00,,,0.00,Wunderground v.1.15,2013-08-08 05:20:00,
2013-08-08 01:25:00,67.0,63.3,29.66,SSW,213,9.0,-999.0,88,0.00,,,0.00,Wunderground v.1.15,2013-08-08 05:25:00,
2013-08-08 01:30:00,67.0,63.3,29.66,SW,219,10.0,-999.0,88,0.00,,,0.00,Wunderground v.1.15,2013-08-08 05:30:00,
2013-08-08 01:35:00,67.1,63.4,29.66,SW,221,10.0,-999.0,88,0.00,,,0.00,Wunderground v.1.15,2013-08-08 05:35:00,
2013-08-08 01:40:00,67.1,63.4,29.67,SW,219,9.0,-999.0,88,0.00,,,0.00,Wunderground v.1.15,2013-08-08 05:40:00,
2013-08-08 01:45:00,67.1,63.1,29.66,SW,222,9.0,-999.0,87,0.00,,,0.00,Wunderground v.1.15,2013-08-08 05:45:00,
2013-08-08 01:55:00,67.2,63.2,29.66,SW,216,9.0,-999.0,87,0.00,,,0.00,Wunderground v.1.15,2013-08-08 05:55:00,
2013-08-08 02:00:00,67.2,63.2,29.66,SW,214,10.0,-999.0,87,0.00,,,0.00,Wunderground v.1.15,2013-08-08 06:00:00,
2013-08-08 02:10:00,67.1,63.1,29.66,SW,218,10.0,-999.0,87,0.00,,,0.00,Wunderground v.1.15,2013-08-08 06:10:00,
2013-08-08 02:15:00,67.0,63.0,29.66,SSW,200,9.0,-999.0,87,0.00,,,0.00,Wunderground v.1.15,2013-08-08 06:15:00,
2013-08-08 02:20:00,66.9,63.2,29.65,SW,218,9.0,-999.0,88,0.00,,,0.00,Wunderground v.1.15,2013-08-08 06:20:00,
2013-08-08 02:25:00,66.8,63.1,29.66,SSW,211,9.0,-999.0,88,0.00,,,0.00,Wunderground v.1.15,2013-08-08 06:25:00,
2013-08-08 02:30:00,66.9,63.2,29.66,SSW,212,9.0,-999.0,88,0.00,,,0.00,Wunderground v.1.15,2013-08-08 06:30:00,
2013-08-08 02:40:00,67.0,63.3,29.65,SW,221,10.0,-999.0,88,0.00,,,0.00,Wunderground v.1.15,2013-08-08 06:40:00,
2013-08-08 02:45:00,67.0,63.0,29.65,SSW,203,10.0,-999.0,87,0.00,,,0.00,Wunderground v.1.15,2013-08-08 06:45:00,
2013-08-08 02:50:00,67.0,63.0,29.65,SSW,211,9.0,-999.0,87,0.00,,,0.00,Wunderground v.1.15,2013-08-08 06:50:00,
2013-08-08 02:55:00,67.0,63.3,29.65,SSW,210,8.0,-999.0,88,0.00,,,0.00,Wunderground v.1.15,2013-08-08 06:55:00,
2013-08-08 03:00:00,67.0,63.3,29.65,SW,220,8.0,-999.0,88,0.00,,,0.00,Wunderground v.1.15,2013-08-08 07:00:00,
2013-08-08 03:10:00,67.0,63.3,29.66,SW,216,7.0,-999.0,88,0.00,,,0.00,Wunderground v.1.15,2013-08-08 07:10:00,
2013-08-08 03:20:00,67.0,63.3,29.66,SW,217,5.0,-999.0,88,0.00,,,0.00,Wunderground v.1.15,2013-08-08 07:20:00,
2013-08-08 03:25:00,67.0,63.3,29.66,SW,225,6.0,-999.0,88,0.00,,,0.00,Wunderground v.1.15,2013-08-08 07:25:00,
2013-08-08 03:30:00,67.1,63.4,29.67,SW,223,6.0,-999.0,88,0.00,,,0.00,Wunderground v.1.15,2013-08-08 07:30:00,
2013-08-08 03:40:00,67.2,63.5,29.66,SSW,212,7.0,-999.0,88,0.00,,,0.00,Wunderground v.1.15,2013-08-08 07:40:00,
2013-08-08 03:45:00,67.0,63.3,29.67,SSW,213,7.0,-999.0,88,0.00,,,0.00,Wunderground v.1.15,2013-08-08 07:45:00,
2013-08-08 03:55:00,66.6,63.6,29.67,SW,223,7.0,-999.0,90,0.15,,,0.02,Wunderground v.1.15,2013-08-08 07:55:00,
2013-08-08 04:00:00,66.5,63.5,29.68,WSW,239,6.0,-999.0,90,0.09,,,0.02,Wunderground v.1.15,2013-08-08 08:00:00,
2013-08-08 04:10:00,66.1,63.4,29.68,West,263,3.0,-999.0,91,0.34,,,0.06,Wunderground v.1.15,2013-08-08 08:10:00,
2013-08-08 04:15:00,66.1,63.7,29.68,West,269,4.0,-999.0,92,0.24,,,0.08,Wunderground v.1.15,2013-08-08 08:15:00,
2013-08-08 04:20:00,66.2,63.8,29.69,West,268,5.0,-999.0,92,0.20,,,0.10,Wunderground v.1.15,2013-08-08 08:20:00,
2013-08-08 04:30:00,66.5,64.4,29.69,West,270,4.0,-999.0,93,0.22,,,0.14,Wunderground v.1.15,2013-08-08 08:30:00,
2013-08-08 04:35:00,66.5,64.4,29.69,West,265,4.0,-999.0,93,0.26,,,0.16,Wunderground v.1.15,2013-08-08 08:35:00,
2013-08-08 04:40:00,66.5,64.4,29.68,SW,225,5.0,-999.0,93,0.17,,,0.17,Wunderground v.1.15,2013-08-08 08:40:00,
2013-08-08 04:50:00,66.5,64.7,29.68,SSW,206,6.0,-999.0,94,0.18,,,0.21,Wunderground v.1.15,2013-08-08 08:50:00,
2013-08-08 04:55:00,66.5,64.7,29.67,South,180,6.0,-999.0,94,0.18,,,0.22,Wunderground v.1.15,2013-08-08 08:55:00,
2013-08-08 05:00:00,66.4,64.6,29.67,South,186,5.0,-999.0,94,0.22,,,0.24,Wunderground v.1.15,2013-08-08 09:00:00,
2013-08-08 05:10:00,65.9,64.1,29.66,South,186,1.0,-999.0,94,0.16,,,0.26,Wunderground v.1.15,2013-08-08 09:10:00,
2013-08-08 05:15:00,66.2,64.7,29.66,SSW,209,2.0,-999.0,95,0.09,,,0.27,Wunderground v.1.15,2013-08-08 09:15:00,
2013-08-08 05:20:00,66.5,65.0,29.67,SW,224,4.0,-999.0,95,0.14,,,0.28,Wunderground v.1.15,2013-08-08 09:20:00,
2013-08-08 05:25:00,66.7,65.2,29.68,SW,230,5.0,-999.0,95,0.09,,,0.28,Wunderground v.1.15,2013-08-08 09:25:00,
2013-08-08 05:30:00,66.7,64.9,29.68,SW,230,3.0,-999.0,94,0.05,,,0.28,Wunderground v.1.15,2013-08-08 09:30:00,
2013-08-08 05:35:00,66.7,64.9,29.68,SW,230,3.0,-999.0,94,0.00,,,0.28,Wunderground v.1.15,2013-08-08 09:35:00,
2013-08-08 05:45:00,66.6,64.8,29.68,SW,230,1.0,-999.0,94,0.00,,,0.29,Wunderground v.1.15,2013-08-08 09:45:00,
2013-08-08 05:50:00,66.4,64.6,29.68,SW,230,0.0,-999.0,94,0.00,,,0.29,Wunderground v.1.15,2013-08-08 09:50:00,
2013-08-08 05:55:00,66.4,64.6,29.67,SW,230,0.0,-999.0,94,0.00,,,0.29,Wunderground v.1.15,2013-08-08 09:55:00,
2013-08-08 06:00:00,66.4,64.9,29.66,SW,230,0.0,-999.0,95,0.00,,,0.29,Wunderground v.1.15,2013-08-08 10:00:00,
2013-08-08 06:10:00,65.9,64.1,29.66,South,188,4.0,-999.0,94,0.00,,,0.29,Wunderground v.1.15,2013-08-08 10:10:00,
2013-08-08 06:15:00,65.8,64.3,29.66,South,180,5.0,-999.0,95,0.00,,,0.29,Wunderground v.1.15,2013-08-08 10:15:00,
2013-08-08 06:20:00,65.8,64.3,29.67,South,180,4.0,-999.0,95,0.00,,,0.29,Wunderground v.1.15,2013-08-08 10:20:00,
2013-08-08 06:25:00,65.8,64.3,29.67,South,180,1.0,-999.0,95,0.00,,,0.29,Wunderground v.1.15,2013-08-08 10:25:00,
2013-08-08 06:30:00,65.8,64.6,29.67,South,180,0.0,-999.0,96,0.00,,,0.29,Wunderground v.1.15,2013-08-08 10:30:00,
2013-08-08 06:35:00,65.8,64.6,29.67,South,180,0.0,-999.0,96,0.00,,,0.29,Wunderground v.1.15,2013-08-08 10:35:00,
2013-08-08 06:40:00,65.8,64.6,29.67,South,180,0.0,-999.0,96,0.00,,,0.29,Wunderground v.1.15,2013-08-08 10:40:00,
2013-08-08 06:50:00,65.8,64.6,29.67,South,180,0.0,-999.0,96,0.00,,,0.29,Wunderground v.1.15,2013-08-08 10:50:00,
2013-08-08 06:55:00,65.8,64.6,29.67,South,180,0.0,-999.0,96,0.00,,,0.29,Wunderground v.1.15,2013-08-08 10:55:00,
2013-08-08 07:00:00,65.8,64.6,29.67,South,180,0.0,-999.0,96,0.00,,,0.29,Wunderground v.1.15,2013-08-08 11:00:00,
2013-08-08 07:10:00,65.7,64.5,29.67,South,180,1.0,-999.0,96,0.00,,,0.29,Wunderground v.1.15,2013-08-08 11:10:00,
2013-08-08 07:20:00,66.0,64.8,29.68,South,180,3.0,-999.0,96,0.00,,,0.29,Wunderground v.1.15,2013-08-08 11:20:00,
2013-08-08 07:25:00,66.1,64.9,29.68,South,180,3.0,-999.0,96,0.00,,,0.29,Wunderground v.1.15,2013-08-08 11:25:00,
2013-08-08 07:30:00,66.3,65.1,29.68,South,180,3.0,-999.0,96,0.00,,,0.29,Wunderground v.1.15,2013-08-08 11:30:00,
2013-08-08 07:35:00,66.3,65.1,29.68,South,182,3.0,-999.0,96,0.00,,,0.29,Wunderground v.1.15,2013-08-08 11:35:00,
2013-08-08 07:40:00,66.4,65.2,29.68,South,186,4.0,-999.0,96,0.00,,,0.29,Wunderground v.1.15,2013-08-08 11:40:00,
2013-08-08 07:45:00,66.5,65.3,29.68,SSW,197,4.0,-999.0,96,0.00,,,0.29,Wunderground v.1.15,2013-08-08 11:45:00,
2013-08-08 07:55:00,66.7,65.5,29.68,SSW,203,5.0,-999.0,96,0.00,,,0.29,Wunderground v.1.15,2013-08-08 11:55:00,
2013-08-08 08:00:00,66.7,65.2,29.69,SW,216,5.0,-999.0,95,0.00,,,0.29,Wunderground v.1.15,2013-08-08 12:00:00,
2013-08-08 08:10:00,67.1,65.6,29.69,SW,219,6.0,-999.0,95,0.00,,,0.29,Wunderground v.1.15,2013-08-08 12:10:00,
2013-08-08 08:15:00,67.4,65.9,29.69,SSW,213,6.0,-999.0,95,0.00,,,0.29,Wunderground v.1.15,2013-08-08 12:15:00,
2013-08-08 08:25:00,67.7,66.2,29.69,SSW,199,7.0,-999.0,95,0.00,,,0.29,Wunderground v.1.15,2013-08-08 12:25:00,
2013-08-08 08:30:00,68.0,66.2,29.69,SSW,205,7.0,-999.0,94,0.00,,,0.29,Wunderground v.1.15,2013-08-08 12:30:00,
2013-08-08 08:40:00,68.7,66.9,29.69,SSW,200,6.0,-999.0,94,0.00,,,0.29,Wunderground v.1.15,2013-08-08 12:40:00,
2013-08-08 08:45:00,68.8,66.7,29.69,SW,227,6.0,-999.0,93,0.00,,,0.29,Wunderground v.1.15,2013-08-08 12:45:00,
2013-08-08 08:50:00,68.8,66.7,29.69,SW,225,7.0,-999.0,93,0.00,,,0.29,Wunderground v.1.15,2013-08-08 12:50:00,
2013-08-08 08:55:00,69.1,67.0,29.69,SW,228,7.0,-999.0,93,0.00,,,0.29,Wunderground v.1.15,2013-08-08 12:55:00,
2013-08-08 09:00:00,69.2,66.8,29.69,SW,219,7.0,-999.0,92,0.00,,,0.29,Wunderground v.1.15,2013-08-08 13:00:00,
2013-08-08 09:10:00,69.7,67.3,29.69,SSW,209,7.0,-999.0,92,0.00,,,0.29,Wunderground v.1.15,2013-08-08 13:10:00,
2013-08-08 09:15:00,69.8,67.4,29.69,SSW,209,7.0,-999.0,92,0.00,,,0.29,Wunderground v.1.15,2013-08-08 13:15:00,
2013-08-08 09:20:00,70.1,67.3,29.69,SW,218,7.0,-999.0,91,0.00,,,0.29,Wunderground v.1.15,2013-08-08 13:20:00,
2013-08-08 09:25:00,70.3,67.5,29.69,SW,219,7.0,-999.0,91,0.00,,,0.30,Wunderground v.1.15,2013-08-08 13:25:00,
2013-08-08 09:30:00,70.6,67.8,29.69,SW,232,7.0,-999.0,91,0.00,,,0.30,Wunderground v.1.15,2013-08-08 13:30:00,
2013-08-08 09:35:00,70.9,68.1,29.69,SSW,208,7.0,-999.0,91,0.00,,,0.30,Wunderground v.1.15,2013-08-08 13:35:00,
2013-08-08 09:40:00,71.2,68.1,29.69,SW,219,6.0,-999.0,90,0.00,,,0.30,Wunderground v.1.15,2013-08-08 13:40:00,
2013-08-08 09:45:00,71.6,68.5,29.69,SSW,208,5.0,-999.0,90,0.00,,,0.30,Wunderground v.1.15,2013-08-08 13:45:00,
2013-08-08 09:55:00,71.7,68.6,29.69,SSW,211,5.0,-999.0,90,0.00,,,0.30,Wunderground v.1.15,2013-08-08 13:55:00,
2013-08-08 10:00:00,72.2,69.1,29.69,SSW,206,4.0,-999.0,90,0.00,,,0.30,Wunderground v.1.15,2013-08-08 14:00:00,
2013-08-08 10:10:00,72.6,69.2,29.69,SSW,212,5.0,-999.0,89,0.00,,,0.30,Wunderground v.1.15,2013-08-08 14:10:00,
2013-08-08 10:15:00,72.8,69.4,29.68,SSW,203,4.0,-999.0,89,0.00,,,0.30,Wunderground v.1.15,2013-08-08 14:15:00,
2013-08-08 10:20:00,73.2,69.8,29.69,SSW,198,4.0,-999.0,89,0.00,,,0.30,Wunderground v.1.15,2013-08-08 14:20:00,
2013-08-08 10:25:00,73.3,69.9,29.68,SSW,192,4.0,-999.0,89,0.00,,,0.30,Wunderground v.1.15,2013-08-08 14:25:00,
2013-08-08 10:35:00,73.7,69.9,29.68,SSW,192,3.0,-999.0,88,0.00,,,0.30,Wunderground v.1.15,2013-08-08 14:35:00,
2013-08-08 10:40:00,73.9,69.8,29.68,SSW,192,3.0,-999.0,87,0.00,,,0.30,Wunderground v.1.15,2013-08-08 14:40:00,
2013-08-08 10:45:00,74.1,70.0,29.68,South,190,4.0,-999.0,87,0.00,,,0.30,Wunderground v.1.15,2013-08-08 14:45:00,
2013-08-08 10:50:00,74.1,70.0,29.68,SSW,207,4.0,-999.0,87,0.00,,,0.30,Wunderground v.1.15,2013-08-08 14:50:00,
2013-08-08 10:55:00,74.6,70.1,29.68,SSW,207,4.0,-999.0,86,0.00,,,0.30,Wunderground v.1.15,2013-08-08 14:55:00,
2013-08-08 11:00:00,74.7,70.2,29.68,SSW,201,3.0,-999.0,86,0.00,,,0.30,Wunderground v.1.15,2013-08-08 15:00:00,
2013-08-08 11:10:00,75.1,70.6,29.68,SSW,192,3.0,-999.0,86,0.00,,,0.30,Wunderground v.1.15,2013-08-08 15:10:00,
2013-08-08 11:20:00,75.5,70.7,29.68,SSW,192,2.0,-999.0,85,0.00,,,0.30,Wunderground v.1.15,2013-08-08 15:20:00,
2013-08-08 11:25:00,76.0,70.8,29.68,SSW,192,2.0,-999.0,84,0.00,,,0.30,Wunderground v.1.15,2013-08-08 15:25:00,
2013-08-08 11:30:00,76.0,69.7,29.68,SSW,208,3.0,-999.0,81,0.00,,,0.30,Wunderground v.1.15,2013-08-08 15:30:00,
2013-08-08 11:40:00,76.8,71.6,29.68,SSW,208,2.0,-999.0,84,0.00,,,0.30,Wunderground v.1.15,2013-08-08 15:40:00,
2013-08-08 11:45:00,76.6,70.3,29.68,SSW,210,4.0,-999.0,81,0.00,,,0.30,Wunderground v.1.15,2013-08-08 15:45:00,
2013-08-08 11:50:00,76.9,71.0,29.68,SW,223,3.0,-999.0,82,0.00,,,0.30,Wunderground v.1.15,2013-08-08 15:50:00,
2013-08-08 11:55:00,77.1,71.2,29.68,SW,223,2.0,-999.0,82,0.00,,,0.30,Wunderground v.1.15,2013-08-08 15:55:00,
2013-08-08 12:00:00,77.2,70.2,29.68,SW,233,3.0,-999.0,79,0.00,,,0.30,Wunderground v.1.15,2013-08-08 16:00:00,
2013-08-08 12:10:00,77.5,70.5,29.68,SW,217,4.0,-999.0,79,0.00,,,0.30,Wunderground v.1.15,2013-08-08 16:10:00,
2013-08-08 12:15:00,77.8,70.8,29.69,SW,227,4.0,-999.0,79,0.00,,,0.30,Wunderground v.1.15,2013-08-08 16:15:00,
2013-08-08 12:20:00,77.6,70.2,29.68,SW,232,4.0,-999.0,78,0.00,,,0.30,Wunderground v.1.15,2013-08-08 16:20:00,
2013-08-08 12:25:00,78.1,71.4,29.68,South,182,3.0,-999.0,80,0.00,,,0.30,Wunderground v.1.15,2013-08-08 16:25:00,
2013-08-08 12:30:00,78.2,71.2,29.68,SSW,194,3.0,-999.0,79,0.00,,,0.30,Wunderground v.1.15,2013-08-08 16:30:00,
2013-08-08 12:35:00,78.3,70.5,29.68,SSW,201,4.0,-999.0,77,0.00,,,0.30,Wunderground v.1.15,2013-08-08 16:35:00,
2013-08-08 12:45:00,78.9,71.5,29.68,South,191,2.0,-999.0,78,0.00,,,0.30,Wunderground v.1.15,2013-08-08 16:45:00,
2013-08-08 12:50:00,79.1,70.9,29.67,South,186,3.0,-999.0,76,0.00,,,0.30,Wunderground v.1.15,2013-08-08 16:50:00,
2013-08-08 12:55:00,79.2,71.7,29.67,South,185,3.0,-999.0,78,0.00,,,0.30,Wunderground v.1.15,2013-08-08 16:55:00,
2013-08-08 13:00:00,79.4,71.6,29.67,SSW,209,4.0,-999.0,77,0.00,,,0.30,Wunderground v.1.15,2013-08-08 17:00:00,
2013-08-08 13:10:00,80.0,71.4,29.68,SW,215,3.0,-999.0,75,0.00,,,0.30,Wunderground v.1.15,2013-08-08 17:10:00,
2013-08-08 13:15:00,80.1,71.5,29.67,SW,221,4.0,-999.0,75,0.00,,,0.30,Wunderground v.1.15,2013-08-08 17:15:00,
2013-08-08 13:20:00,80.3,71.6,29.67,SW,215,3.0,-999.0,75,0.00,,,0.30,Wunderground v.1.15,2013-08-08 17:20:00,
2013-08-08 13:25:00,80.7,72.0,29.67,SSW,210,2.0,-999.0,75,0.00,,,0.30,Wunderground v.1.15,2013-08-08 17:25:00,
2013-08-08 13:30:00,80.8,71.3,29.67,SSW,210,2.0,-999.0,73,0.00,,,0.30,Wunderground v.1.15,2013-08-08 17:30:00,
2013-08-08 13:35:00,80.7,72.0,29.67,SSW,210,2.0,-999.0,75,0.00,,,0.30,Wunderground v.1.15,2013-08-08 17:35:00,
2013-08-08 13:40:00,80.4,71.7,29.67,SSW,210,2.0,-999.0,75,0.00,,,0.30,Wunderground v.1.15,2013-08-08 17:40:00,
2013-08-08 13:50:00,80.0,71.4,29.67,South,185,2.0,-999.0,75,0.00,,,0.30,Wunderground v.1.15,2013-08-08 17:50:00,
2013-08-08 13:55:00,79.9,71.7,29.66,South,175,4.0,-999.0,76,0.00,,,0.30,Wunderground v.1.15,2013-08-08 17:55:00,
2013-08-08 14:00:00,79.9,72.0,29.66,South,175,3.0,-999.0,77,0.00,,,0.30,Wunderground v.1.15,2013-08-08 18:00:00,
2013-08-08 14:10:00,80.5,71.8,29.66,SW,218,4.0,-999.0,75,0.00,,,0.30,Wunderground v.1.15,2013-08-08 18:10:00,
2013-08-08 14:20:00,80.7,70.8,29.66,SSW,192,6.0,-999.0,72,0.00,,,0.30,Wunderground v.1.15,2013-08-08 18:20:00,
2013-08-08 14:25:00,80.7,72.0,29.66,South,184,6.0,-999.0,75,0.00,,,0.30,Wunderground v.1.15,2013-08-08 18:25:00,
2013-08-08 14:30:00,80.5,72.6,29.66,SSW,194,6.0,-999.0,77,0.00,,,0.30,Wunderground v.1.15,2013-08-08 18:30:00,
2013-08-08 14:35:00,79.8,70.8,29.66,SSW,192,7.0,-999.0,74,0.00,,,0.30,Wunderground v.1.15,2013-08-08 18:35:00,
2013-08-08 14:40:00,79.9,70.5,29.66,SSW,193,5.0,-999.0,73,0.00,,,0.30,Wunderground v.1.15,2013-08-08 18:40:00,
2013-08-08 14:45:00,80.2,69.9,29.66,SSW,199,4.0,-999.0,71,0.00,,,0.30,Wunderground v.1.15,2013-08-08 18:45:00,
2013-08-08 14:55:00,80.6,69.1,29.65,SSW,200,4.0,-999.0,68,0.00,,,0.30,Wunderground v.1.15,2013-08-08 18:55:00,
2013-08-08 15:00:00,80.4,69.7,29.65,SSW,201,3.0,-999.0,70,0.00,,,0.30,Wunderground v.1.15,2013-08-08 19:00:00,
2013-08-08 15:10:00,80.4,71.3,29.65,SSW,201,1.0,-999.0,74,0.00,,,0.30,Wunderground v.1.15,2013-08-08 19:10:00,
2013-08-08 15:15:00,80.0,70.6,29.65,SSW,209,2.0,-999.0,73,0.00,,,0.30,Wunderground v.1.15,2013-08-08 19:15:00,
2013-08-08 15:25:00,79.6,71.4,29.64,SW,215,3.0,-999.0,76,0.00,,,0.30,Wunderground v.1.15,2013-08-08 19:25:00,
2013-08-08 15:30:00,79.4,71.2,29.64,SW,217,3.0,-999.0,76,0.00,,,0.30,Wunderground v.1.15,2013-08-08 19:30:00,
2013-08-08 15:35:00,79.5,71.7,29.64,SW,219,4.0,-999.0,77,0.00,,,0.30,Wunderground v.1.15,2013-08-08 19:35:00,
2013-08-08 15:40:00,79.4,71.9,29.64,SW,219,3.0,-999.0,78,0.00,,,0.30,Wunderground v.1.15,2013-08-08 19:40:00,
2013-08-08 15:45:00,79.2,71.7,29.64,SW,220,3.0,-999.0,78,0.00,,,0.30,Wunderground v.1.15,2013-08-08 19:45:00,
2013-08-08 15:50:00,79.0,71.9,29.64,SW,229,4.0,-999.0,79,0.00,,,0.30,Wunderground v.1.15,2013-08-08 19:50:00,
2013-08-08 16:00:00,78.3,73.1,29.64,SW,233,5.0,-999.0,84,0.00,,,0.30,Wunderground v.1.15,2013-08-08 20:00:00,
2013-08-08 16:10:00,78.8,72.1,29.63,SW,229,5.0,-999.0,80,0.00,,,0.30,Wunderground v.1.15,2013-08-08 20:10:00,
2013-08-08 16:15:00,79.3,72.6,29.64,SW,231,5.0,-999.0,80,0.00,,,0.30,Wunderground v.1.15,2013-08-08 20:15:00,
2013-08-08 16:20:00,79.7,71.5,29.63,SW,230,3.0,-999.0,76,0.00,,,0.30,Wunderground v.1.15,2013-08-08 20:20:00,
2013-08-08 16:25:00,80.1,71.8,29.63,SW,230,3.0,-999.0,76,0.00,,,0.30,Wunderground v.1.15,2013-08-08 20:25:00,
2013-08-08 16:30:00,80.0,71.4,29.64,SW,228,3.0,-999.0,75,0.00,,,0.30,Wunderground v.1.15,2013-08-08 20:30:00,
2013-08-08 16:40:00,79.5,71.3,29.64,SW,219,2.0,-999.0,76,0.00,,,0.30,Wunderground v.1.15,2013-08-08 20:40:00,
2013-08-08 16:45:00,79.1,71.3,29.63,SW,219,2.0,-999.0,77,0.00,,,0.30,Wunderground v.1.15,2013-08-08 20:45:00,
2013-08-08 16:50:00,78.9,71.5,29.64,SW,219,2.0,-999.0,78,0.00,,,0.30,Wunderground v.1.15,2013-08-08 20:50:00,
2013-08-08 16:55:00,78.7,71.6,29.64,SW,219,1.0,-999.0,79,0.00,,,0.30,Wunderground v.1.15,2013-08-08 20:55:00,
2013-08-08 17:00:00,78.7,73.1,29.64,SW,217,1.0,-999.0,83,0.00,,,0.30,Wunderground v.1.15,2013-08-08 21:00:00,
2013-08-08 17:10:00,76.7,72.2,29.64,South,183,3.0,-999.0,86,0.00,,,0.30,Wunderground v.1.15,2013-08-08 21:10:00,
2013-08-08 17:15:00,76.4,70.9,29.64,South,183,2.0,-999.0,83,0.00,,,0.30,Wunderground v.1.15,2013-08-08 21:15:00,
2013-08-08 17:20:00,76.6,70.7,29.64,South,183,1.0,-999.0,82,0.00,,,0.30,Wunderground v.1.15,2013-08-08 21:20:00,
2013-08-08 17:35:00,76.7,71.5,29.63,South,177,1.0,-999.0,84,0.00,,,0.30,Wunderground v.1.15,2013-08-08 21:35:00,
2013-08-08 17:45:00,75.6,71.8,29.64,South,173,2.0,-999.0,88,0.00,,,0.30,Wunderground v.1.15,2013-08-08 21:45:00,
2013-08-08 17:50:00,75.0,71.9,29.64,SSE,151,2.0,-999.0,90,0.00,,,0.30,Wunderground v.1.15,2013-08-08 21:50:00,
2013-08-08 18:00:00,73.3,69.9,29.65,ENE,77,5.0,-999.0,89,0.00,,,0.30,Wunderground v.1.15,2013-08-08 22:00:00,
2013-08-08 18:05:00,73.0,69.9,29.64,ENE,77,4.0,-999.0,90,0.00,,,0.30,Wunderground v.1.15,2013-08-08 22:05:00,
2013-08-08 18:10:00,72.6,69.5,29.65,ENE,57,4.0,-999.0,90,0.00,,,0.30,Wunderground v.1.15,2013-08-08 22:10:00,
2013-08-08 18:20:00,71.9,68.8,29.65,NE,46,4.0,-999.0,90,0.00,,,0.30,Wunderground v.1.15,2013-08-08 22:20:00,
2013-08-08 18:25:00,72.0,69.2,29.65,NE,46,3.0,-999.0,91,0.00,,,0.30,Wunderground v.1.15,2013-08-08 22:25:00,
2013-08-08 18:30:00,72.1,69.3,29.65,NE,46,3.0,-999.0,91,0.00,,,0.30,Wunderground v.1.15,2013-08-08 22:30:00,
2013-08-08 18:40:00,71.7,68.9,29.65,NE,37,5.0,-999.0,91,0.00,,,0.30,Wunderground v.1.15,2013-08-08 22:40:00,
2013-08-08 18:45:00,71.4,69.0,29.66,NE,35,5.0,-999.0,92,0.00,,,0.30,Wunderground v.1.15,2013-08-08 22:45:00,
2013-08-08 18:50:00,71.3,68.9,29.66,NE,35,4.0,-999.0,92,0.00,,,0.30,Wunderground v.1.15,2013-08-08 22:50:00,
2013-08-08 18:55:00,71.3,68.9,29.66,NE,35,3.0,-999.0,92,0.00,,,0.30,Wunderground v.1.15,2013-08-08 22:55:00,
2013-08-08 19:05:00,71.2,68.8,29.66,NE,35,3.0,-999.0,92,0.00,,,0.30,Wunderground v.1.15,2013-08-08 23:05:00,
2013-08-08 19:10:00,71.3,68.9,29.66,NE,35,3.0,-999.0,92,0.00,,,0.30,Wunderground v.1.15,2013-08-08 23:10:00,
2013-08-08 19:15:00,71.3,69.2,29.66,NE,35,3.0,-999.0,93,0.00,,,0.30,Wunderground v.1.15,2013-08-08 23:15:00,
2013-08-08 19:20:00,71.3,69.2,29.66,NE,35,3.0,-999.0,93,0.00,,,0.30,Wunderground v.1.15,2013-08-08 23:20:00,
2013-08-08 19:25:00,71.3,69.2,29.66,NE,35,2.0,-999.0,93,0.00,,,0.30,Wunderground v.1.15,2013-08-08 23:25:00,
2013-08-08 19:30:00,71.2,69.1,29.65,NE,35,2.0,-999.0,93,0.00,,,0.30,Wunderground v.1.15,2013-08-08 23:30:00,
2013-08-08 19:40:00,71.2,69.4,29.65,NE,35,1.0,-999.0,94,0.00,,,0.30,Wunderground v.1.15,2013-08-08 23:40:00,
2013-08-08 19:50:00,71.1,69.3,29.65,NE,35,3.0,-999.0,94,0.00,,,0.30,Wunderground v.1.15,2013-08-08 23:50:00,
2013-08-08 19:55:00,71.0,69.2,29.65,NE,35,3.0,-999.0,94,0.00,,,0.30,Wunderground v.1.15,2013-08-08 23:55:00,
2013-08-08 20:05:00,70.8,69.0,29.65,NE,35,4.0,-999.0,94,0.00,,,0.30,Wunderground v.1.15,2013-08-09 00:05:00,
2013-08-08 20:10:00,70.7,68.9,29.65,NE,35,3.0,-999.0,94,0.00,,,0.30,Wunderground v.1.15,2013-08-09 00:10:00,
2013-08-08 20:15:00,70.6,68.8,29.65,NE,35,3.0,-999.0,94,0.00,,,0.30,Wunderground v.1.15,2013-08-09 00:15:00,
2013-08-08 20:20:00,70.5,68.7,29.66,NE,35,3.0,-999.0,94,0.00,,,0.30,Wunderground v.1.15,2013-08-09 00:20:00,
2013-08-08 20:25:00,70.3,68.5,29.65,NNE,33,3.0,-999.0,94,0.00,,,0.30,Wunderground v.1.15,2013-08-09 00:25:00,
2013-08-08 20:30:00,70.1,68.3,29.65,NNE,33,4.0,-999.0,94,0.00,,,0.30,Wunderground v.1.15,2013-08-09 00:30:00,
2013-08-08 20:35:00,70.0,68.2,29.65,NNE,33,2.0,-999.0,94,0.00,,,0.30,Wunderground v.1.15,2013-08-09 00:35:00,
2013-08-08 20:40:00,69.9,68.1,29.65,NNE,33,1.0,-999.0,94,0.00,,,0.30,Wunderground v.1.15,2013-08-09 00:40:00,
2013-08-08 20:45:00,69.8,68.0,29.65,NNE,33,0.0,-999.0,94,0.00,,,0.30,Wunderground v.1.15,2013-08-09 00:45:00,
2013-08-08 20:55:00,69.7,67.9,29.66,NNE,33,1.0,-999.0,94,0.00,,,0.30,Wunderground v.1.15,2013-08-09 00:55:00,
2013-08-08 21:00:00,69.7,67.9,29.66,NNE,33,0.0,-999.0,94,0.00,,,0.30,Wunderground v.1.15,2013-08-09 01:00:00,
2013-08-08 21:10:00,69.9,68.1,29.66,NNE,33,1.0,-999.0,94,0.00,,,0.30,Wunderground v.1.15,2013-08-09 01:10:00,
2013-08-08 21:15:00,70.1,68.3,29.66,NNE,33,1.0,-999.0,94,0.00,,,0.30,Wunderground v.1.15,2013-08-09 01:15:00,
2013-08-08 21:30:00,70.2,68.4,29.66,NNE,33,0.0,-999.0,94,0.00,,,0.30,Wunderground v.1.15,2013-08-09 01:30:00,
2013-08-08 21:35:00,70.3,68.5,29.66,NNE,33,0.0,-999.0,94,0.00,,,0.30,Wunderground v.1.15,2013-08-09 01:35:00,
2013-08-08 21:50:00,70.2,68.4,29.66,NNE,33,0.0,-999.0,94,0.00,,,0.30,Wunderground v.1.15,2013-08-09 01:50:00,
2013-08-08 21:55:00,70.2,68.4,29.66,NNE,33,0.0,-999.0,94,0.00,,,0.30,Wunderground v.1.15,2013-08-09 01:55:00,
2013-08-08 22:05:00,70.2,68.4,29.66,NNE,33,0.0,-999.0,94,0.00,,,0.30,Wunderground v.1.15,2013-08-09 02:05:00,
2013-08-08 22:15:00,70.0,68.2,29.66,NNE,33,0.0,-999.0,94,0.00,,,0.30,Wunderground v.1.15,2013-08-09 02:15:00,
2013-08-08 22:20:00,70.0,68.5,29.66,NNE,33,0.0,-999.0,95,0.00,,,0.30,Wunderground v.1.15,2013-08-09 02:20:00,
2013-08-08 22:30:00,70.0,68.5,29.67,NNE,33,0.0,-999.0,95,0.00,,,0.30,Wunderground v.1.15,2013-08-09 02:30:00,
2013-08-08 22:35:00,69.9,68.4,29.66,NNE,33,0.0,-999.0,95,0.00,,,0.30,Wunderground v.1.15,2013-08-09 02:35:00,
2013-08-08 22:40:00,70.0,68.5,29.66,NNE,33,0.0,-999.0,95,0.00,,,0.30,Wunderground v.1.15,2013-08-09 02:40:00,
2013-08-08 22:45:00,70.0,68.5,29.66,NNE,33,0.0,-999.0,95,0.00,,,0.30,Wunderground v.1.15,2013-08-09 02:45:00,
2013-08-08 22:55:00,70.0,68.5,29.65,NNE,33,0.0,-999.0,95,0.00,,,0.30,Wunderground v.1.15,2013-08-09 02:55:00,
2013-08-08 23:05:00,70.0,68.8,29.65,NNE,33,0.0,-999.0,96,0.00,,,0.30,Wunderground v.1.15,2013-08-09 03:05:00,
2013-08-08 23:10:00,70.0,68.8,29.65,NNE,33,0.0,-999.0,96,0.00,,,0.30,Wunderground v.1.15,2013-08-09 03:10:00,
2013-08-08 23:15:00,70.0,68.8,29.65,NNE,33,0.0,-999.0,96,0.00,,,0.30,Wunderground v.1.15,2013-08-09 03:15:00,
2013-08-08 23:20:00,70.0,68.8,29.65,NNE,33,0.0,-999.0,96,0.00,,,0.30,Wunderground v.1.15,2013-08-09 03:20:00,
2013-08-08 23:30:00,70.1,68.9,29.65,NNE,33,0.0,-999.0,96,0.00,,,0.30,Wunderground v.1.15,2013-08-09 03:30:00,
2013-08-08 23:45:00,69.8,68.6,29.65,NNE,33,0.0,-999.0,96,0.00,,,0.30,Wunderground v.1.15,2013-08-09 03:45:00,
2013-08-08 23:50:00,69.7,68.5,29.65,NNE,33,0.0,-999.0,96,0.00,,,0.30,Wunderground v.1.15,2013-08-09 03:50:00,
2013-08-08 23:55:00,69.6,68.4,29.64,NNE,33,0.0,-999.0,96,0.00,,,0.30,Wunderground v.1.15,2013-08-09 03:55:00,